Date String (YYYY-MM-DD hh:mm:ss) UTC,Instrument flags,absolute air pressure of the measurement (hPa),sample flow rate (lpm),inlet stack bypass flow (lpm),air temperature of the measurement (°C),ambient temperature measured by the external sensor (°C),aerosol sample conditioner tube jacket temperature (°C),OPC LED temperature (°C),internal box temperature (°C),relative humidity of the measurement (%),span deviation,mass concentration of particles derived from Lorenz-Mie calculation of OPC scattering (μg/m³),mass concentration of particles derived from Lorenz-Mie calculation of OPC scattering (μg/m³),mass concentration of particles derived from Lorenz-Mie calculation of OPC scattering (μg/m³)
DateTimeUTC,F1_M11,P_M11,Q1_M11,Q2_M11,T1_M11,T2_M11,T3_M11,T4_M11,T5_M11,U1_M11,ZSPAN_M11,X0_M11,X2_M11,X1_M11
2024-01-19 15:00:00,SystemResetWarning,0835.5,5.00,000.00,018.9,018.3,000.0,027.2,020.0,10.7,0000.2,0009.33,0006.22,0005.98
2024-01-19 15:01:00,SystemResetWarning,0835.5,5.00,000.00,018.9,018.2,000.0,027.2,020.0,10.6,0000.5,0009.33,0006.20,0005.96
2024-01-19 15:02:00,SystemResetWarning,0835.5,5.01,000.00,018.9,018.0,000.0,027.2,020.0,10.5,0000.0,0009.25,0006.17,0005.95
2024-01-19 15:03:00,SystemResetWarning,0835.5,5.00,000.00,018.8,017.9,000.0,027.3,020.0,10.4,0000.0,0009.30,0006.20,0005.95
2024-01-19 15:04:00,SystemResetWarning,0835.5,5.00,000.00,018.8,017.9,000.0,027.3,020.0,10.4,0000.0,0009.20,0006.20,0005.95
2024-01-19 15:05:00,SystemResetWarning,0835.5,4.99,000.00,018.8,017.8,000.0,027.3,020.0,10.4,0000.0,0008.70,0006.21,0005.94
2024-01-19 15:06:00,SystemResetWarning,0835.5,4.99,000.00,018.8,017.7,000.0,027.3,020.0,10.4,0000.0,0008.66,0006.22,0005.94
2024-01-19 15:07:00,SystemResetWarning,0835.5,5.00,000.00,018.8,017.7,000.0,027.3,020.0,10.5,0000.0,0008.57,0006.23,0005.94
2024-01-19 15:08:00,SystemResetWarning,0835.5,5.00,000.00,018.8,017.6,000.0,027.3,020.0,10.4,0000.0,0008.85,0006.22,0005.94
2024-01-19 15:09:00,SystemResetWarning,0835.6,5.00,000.00,018.8,017.6,000.0,027.3,020.0,10.5,0000.0,0008.99,0006.24,0005.95
2024-01-19 15:10:00,SystemResetWarning,0835.5,5.01,000.00,018.8,017.5,000.0,027.3,020.0,10.6,0000.0,0009.09,0006.29,0005.98
2024-01-19 15:11:00,SystemResetWarning,0835.6,5.00,000.00,018.8,017.5,000.0,027.3,020.0,10.7,0001.1,0009.13,0006.36,0006.04
2024-01-19 15:12:00,SystemResetWarning,0835.6,5.00,000.00,018.8,017.5,000.0,027.3,020.0,10.7,0001.8,0009.16,0006.43,0006.10
2024-01-19 15:13:00,SystemResetWarning,0835.6,5.01,000.00,018.8,017.4,000.0,027.3,020.0,10.8,0001.3,0009.25,0006.50,0006.16
2024-01-19 15:14:00,SystemResetWarning,0835.6,5.00,000.00,018.8,017.4,000.0,027.3,020.0,10.8,0000.8,0009.29,0006.54,0006.21
2024-01-19 15:15:00,SystemResetWarning,0835.6,5.00,000.00,018.8,018.0,000.0,027.2,020.4,10.6,0000.8,0009.31,0006.60,0006.28
2024-01-19 15:16:00,SystemResetWarning,0835.6,5.00,000.00,019.0,019.1,000.0,027.2,020.9,10.4,0000.9,0009.24,0006.63,0006.32
2024-01-19 15:17:00,SystemResetWarning,0835.6,4.99,000.00,019.1,019.5,000.0,027.2,020.8,10.3,0001.2,0009.23,0006.68,0006.36
2024-01-19 15:18:00,SystemResetWarning,0835.6,4.99,000.00,019.1,019.3,000.0,027.2,020.4,10.3,0001.2,0010.36,0006.72,0006.42
2024-01-19 15:19:00,SystemResetWarning,0835.6,5.00,000.00,019.0,019.0,000.0,027.2,020.1,10.3,0000.9,0010.83,0006.77,0006.48
2024-01-19 15:20:00,SystemResetWarning,0835.6,5.00,000.00,019.0,018.7,000.0,027.2,020.0,10.3,0000.9,0010.76,0006.84,0006.54
2024-01-19 15:21:00,SystemResetWarning,0835.6,5.00,000.00,018.9,018.5,000.0,027.2,020.0,10.4,0001.3,0010.79,0006.90,0006.61
2024-01-19 15:22:00,SystemResetWarning,0835.7,5.01,000.00,018.9,018.3,000.0,027.2,020.0,10.4,0001.3,0010.89,0006.95,0006.68
2024-01-19 15:23:00,SystemResetWarning,0835.7,5.00,000.00,018.9,018.2,000.0,027.3,020.0,10.5,0001.2,0011.18,0007.01,0006.74
2024-01-19 15:24:00,SystemResetWarning,0835.7,5.00,000.00,018.9,018.1,000.0,027.3,020.0,10.6,0001.2,0011.55,0007.08,0006.82
2024-01-19 15:25:00,SystemResetWarning,0835.7,4.99,000.00,018.9,018.0,000.0,027.3,020.0,10.6,0001.1,0011.62,0007.13,0006.88
2024-01-19 15:26:00,SystemResetWarning,0835.8,5.00,000.00,018.9,017.9,000.0,027.3,020.0,10.6,0000.9,0011.71,0007.18,0006.94
2024-01-19 15:27:00,SystemResetWarning,0835.8,5.00,000.00,018.8,017.8,000.0,027.3,020.0,10.7,0000.7,0012.07,0007.22,0006.98
2024-01-19 15:28:00,SystemResetWarning,0835.6,5.00,000.00,018.8,017.8,000.0,027.3,020.0,10.6,0000.5,0012.12,0007.25,0007.02
2024-01-19 15:29:00,SystemResetWarning,0835.6,5.00,000.00,018.8,017.8,000.0,027.3,020.0,10.6,0000.5,0010.93,0007.26,0007.03
2024-01-19 15:30:00,SystemResetWarning,0835.7,5.01,000.00,018.8,017.8,000.0,027.3,020.0,10.6,0001.1,0010.36,0007.29,0007.05
2024-01-19 15:31:00,SystemResetWarning,0835.8,5.01,000.00,018.8,017.7,000.0,027.3,020.0,10.6,0001.2,0010.36,0007.30,0007.07
2024-01-19 15:32:00,SystemResetWarning,0835.7,5.00,000.00,018.8,017.7,000.0,027.3,020.0,10.6,0000.7,0010.41,0007.34,0007.09
2024-01-19 15:33:00,SystemResetWarning,0835.8,4.99,000.00,018.8,017.7,000.0,027.3,020.0,10.5,0000.1,0010.52,0007.38,0007.11
2024-01-19 15:34:00,SystemResetWarning,0835.8,4.99,000.00,018.8,017.7,000.0,027.3,020.0,10.6,0000.4,0010.37,0007.38,0007.13
2024-01-19 15:35:00,SystemResetWarning,0835.8,5.00,000.00,018.8,017.7,000.0,027.2,020.0,10.7,0001.1,0010.05,0007.42,0007.17
2024-01-19 15:36:00,SystemResetWarning,0835.7,5.01,000.00,018.8,017.8,000.0,027.2,020.0,10.7,0001.4,0010.14,0007.47,0007.21
2024-01-19 15:37:00,SystemResetWarning,0835.7,4.99,000.00,018.8,017.8,000.0,027.2,020.0,10.7,0001.9,0010.20,0007.53,0007.24
2024-01-19 15:38:00,SystemResetWarning,0835.7,4.99,000.00,018.8,017.8,000.0,027.2,020.0,10.7,0001.5,0010.06,0007.60,0007.30
2024-01-19 15:39:00,SystemResetWarning,0835.8,4.99,000.00,018.8,017.8,000.0,027.2,020.0,10.7,0001.3,0010.71,0007.71,0007.38
2024-01-19 15:40:00,SystemResetWarning,0835.9,5.01,000.00,018.7,017.8,000.0,027.2,020.0,10.7,0001.3,0010.89,0007.81,0007.45
2024-01-19 15:41:00,SystemResetWarning,0835.9,5.01,000.00,018.7,017.8,000.0,027.2,020.0,10.7,0001.1,0011.03,0007.89,0007.51
2024-01-19 15:42:00,SystemResetWarning,0835.9,5.00,000.00,018.8,018.2,000.0,027.2,020.3,10.8,0000.9,0011.14,0007.98,0007.58
2024-01-19 15:43:00,SystemResetWarning,0835.9,4.99,000.00,018.9,019.1,000.0,027.2,020.8,10.7,0000.8,0011.30,0008.07,0007.66
2024-01-19 15:44:00,SystemResetWarning,0835.9,5.00,000.00,019.0,019.3,000.0,027.2,020.7,10.7,0001.2,0011.32,0008.08,0007.69
2024-01-19 15:45:00,SystemResetWarning,0835.9,4.99,000.00,019.0,019.1,000.0,027.2,020.4,10.7,0001.3,0011.56,0008.15,0007.73
2024-01-19 15:46:00,SystemResetWarning,0835.9,5.00,000.00,019.0,018.9,000.0,027.2,020.2,10.7,0001.0,0011.66,0008.18,0007.76
2024-01-19 15:47:00,SystemResetWarning,0835.9,5.01,000.00,019.0,018.8,000.0,027.2,020.2,10.7,0000.9,0011.74,0008.23,0007.77
2024-01-19 15:48:00,SystemResetWarning,0835.9,4.99,000.00,019.0,018.6,000.0,027.2,020.1,10.7,0000.7,0011.87,0008.30,0007.80
2024-01-19 15:49:00,SystemResetWarning,0835.9,5.00,000.00,018.9,018.5,000.0,027.2,020.0,10.7,0000.7,0011.99,0008.36,0007.85
2024-01-19 15:50:00,SystemResetWarning,0835.8,5.01,000.00,018.9,018.4,000.0,027.2,020.0,10.8,0000.3,0011.61,0008.41,0007.89
2024-01-19 15:51:00,SystemResetWarning,0835.8,5.01,000.00,018.9,018.3,000.0,027.2,020.0,10.8,0000.4,0011.56,0008.47,0007.93
2024-01-19 15:52:00,SystemResetWarning,0835.9,5.00,000.00,018.9,018.3,000.0,027.2,020.0,10.9,0000.6,0012.11,0008.51,0007.98
2024-01-19 15:53:00,SystemResetWarning,0835.9,5.00,000.00,018.8,018.2,000.0,027.2,020.0,10.9,0000.7,0012.16,0008.54,0008.00
2024-01-19 15:54:00,SystemResetWarning,0835.9,5.00,000.00,018.8,018.2,000.0,027.2,020.0,10.8,0000.6,0012.24,0008.57,0008.03
2024-01-19 15:55:00,SystemResetWarning,0835.9,5.00,000.00,018.8,018.2,000.0,027.2,020.0,10.8,0001.0,0012.28,0008.63,0008.06
2024-01-19 15:56:00,SystemResetWarning,0835.9,5.00,000.00,018.8,018.2,000.0,027.2,020.0,10.9,0001.2,0012.21,0008.67,0008.08
2024-01-19 15:57:00,SystemResetWarning,0836.0,5.00,000.00,018.8,018.1,000.0,027.2,020.0,10.9,0001.1,0012.35,0008.72,0008.10
2024-01-19 15:58:00,SystemResetWarning,0835.9,5.00,000.00,018.8,018.1,000.0,027.2,020.0,10.9,0001.0,0012.90,0008.73,0008.13
2024-01-19 15:59:00,SystemResetWarning,0835.9,5.00,000.00,018.8,018.1,000.0,027.2,020.0,10.9,0001.1,0013.11,0008.72,0008.15
